Content
SEND FEEDBACK

United States of America Flag

CHESTERFIELD, MISSOURI


Home > North America > United States > Missouri
Elevation: 170 meters     Latitude: 38 41N     Longitude: 090 31W

WEATHER
 
SELECT A DAY
Number of Records: 221,284;   Date Range: 1/1/95 - 3/22/16
 
SHARE

PRINT THIS DATA

[ ← Previous Day ]
WEATHER ALMANAC - 9 MAY, 2013
[ Next Day → ]
[ °F ]   °C
Weather ElementAverageHighLow
Temperature21.1 °C24.4 °C (5:51 pm)18.3 °C (11:51 pm)
Dewpoint15 °C17.2 °C (12:51 pm)13.3 °C (2:51 am)
Humidity68.7 %84 % (12:51 pm)52 % (5:51 pm)
Barometer1012.5 hPa1014.2 hPa (12:00 pm)1010.2 hPa (6:51 pm)
Wind Speed13 km/h29.6 km/h (4:51 pm)
Wind Gust44.4 km/h (11:55 am)
Weather ElementAverage
Visibility14.6 km
Wind DirectionSSE (165.5 °)

Weather ElementTotal
Precipitation15.75 mm
Cooling Degree Days3 (Base 18.3)
Growing Degree Days11.3 (Base 10)
Averaged from 29 records on 9 May, 2013
WEATHER CONDITIONS BREAKOUT
WIND DIRECTION BREAKOUT
WEATHER BY HOUR - 9 MAY, 2013
[ °F ]   °C
Local TimeTemperatureDewpointHumidityBarometerVisibilityWind DirectionWind SpeedGust SpeedPrecipitationEventsConditions
1:51 AM20 °C13.9 °C68 %1013.9 hPa16.1 kmSE (140°)7.4 km/hOvercast
2:51 AM20 °C13.3 °C65 %1013.5 hPa16.1 kmSSE (150°)14.8 km/hMostly Cloudy
3:51 AM20 °C13.3 °C65 %1013.2 hPa16.1 kmSSE (150°)7.4 km/hMostly Cloudy
4:51 AM20 °C13.3 °C65 %1012.9 hPa16.1 kmSouth (170°)14.8 km/hMostly Cloudy
5:51 AM19.4 °C13.9 °C70 %1012.9 hPa16.1 kmSouth (180°)11.1 km/hOvercast
6:51 AM20 °C13.3 °C65 %1012.9 hPa16.1 kmSouth (180°)13 km/hMostly Cloudy
7:51 AM21.1 °C14.4 °C65 %1012.9 hPa16.1 kmSouth (170°)9.3 km/hMostly Cloudy
8:51 AM21.7 °C14.4 °C63 %1012.9 hPa16.1 kmWSW (240°)5.6 km/hOvercast
9:51 AM20.6 °C16.1 °C75 %1013.2 hPa12.9 kmCalm1.02 mmRainLight Rain
10:51 AM21.7 °C16.1 °C70 %1013.5 hPa16.1 kmWNW (290°)5.6 km/h0 mmRainLight Rain
11:51 AM22.2 °C16.1 °C68 %1013.5 hPa4.8 kmWSW (240°)14.8 km/h0 mmRainLight Rain
11:55 AM21 °C16 °C73 %1013.9 hPa4 kmSW (220°)27.8 km/h44.4 km/h1.27 mmRain-ThunderstormThunderstorms and Rain
12:00 PM20 °C16 °C78 %1014.2 hPa6.4 kmSSW (210°)22.2 km/h44.4 km/h2.79 mmRain-ThunderstormLight Thunderstorms and Rain
12:08 PM20 °C17 °C83 %1013.9 hPa11.3 kmSouth (170°)14.8 km/h3.56 mmRain-ThunderstormLight Thunderstorms and Rain
12:25 PM20 °C17 °C83 %1012.9 hPa16.1 kmSE (130°)13 km/h3.56 mmRainLight Rain
12:51 PM20 °C17.2 °C84 %1011.9 hPa16.1 kmEast (80°)5.6 km/h3.56 mmRainLight Rain
1:51 PM22.2 °C16.7 °C71 %1011.9 hPa16.1 kmSSW (200°)20.4 km/h0 mmOvercast
2:12 PM22 °C17 °C73 %1012.2 hPa16.1 kmSouth (180°)16.7 km/h27.8 km/hOvercast
2:48 PM22 °C16 °C69 %1011.9 hPa16.1 kmSSW (200°)20.4 km/hOvercast
2:51 PM22.2 °C16.1 °C68 %1011.2 hPa16.1 kmSSW (200°)25.9 km/hOvercast
3:51 PM21.7 °C15.6 °C68 %1010.8 hPa16.1 kmWest (270°)22.2 km/h42.6 km/hMostly Cloudy
4:51 PM23.9 °C14.4 °C55 %1010.5 hPa16.1 kmWSW (250°)29.6 km/h44.4 km/hScattered Clouds
5:51 PM24.4 °C13.9 °C52 %1010.8 hPa16.1 kmWSW (250°)29.6 km/hMostly Cloudy
6:51 PM24.4 °C13.9 °C52 %1010.2 hPa16.1 kmWest (270°)16.7 km/hMostly Cloudy
7:51 PM22.8 °C13.3 °C55 %1010.8 hPa16.1 kmWest (260°)11.1 km/hMostly Cloudy
8:51 PM21 °C14 °C64 %1012.2 hPa16.1 kmCalmScattered Clouds
9:51 PM19.4 °C13.9 °C70 %1011.9 hPa16.1 kmCalmScattered Clouds
10:51 PM18.9 °C15 °C78 %1011.9 hPa16.1 kmCalmScattered Clouds
11:51 PM18.3 °C14.4 °C78 %1011.9 hPa16.1 kmCalmMostly Cloudy
Hourly data recorded from KSTL, located 0 kilometers away from Chesterfield, Missouri




STORIES FROM OUR PARTNERS